Location: ????????
(55.4000°N, 39.1167°E)
Time: 16:31:32
(UTC+00:00)

Cosmos 2219 Rocket - Pass Details

Date: 19 May 2025
Orbit: 828 x 844 km, 71.0° (Epoch: 20 June)

Event Time Altitude Azimuth Distance (km) Brightness Sun altitude
Rises 20:37:14 0° 325° (NW) 3,403 6.6 -14.1°
Reaches altitude 10° 20:39:44 10° 330° (NNW) 2,463 5.8 -14.1°
Maximum altitude 20:45:19 58° 49° (NE) 974 2.7 -14.3°
Enters shadow 20:50:46 10° 128° (SE) 2,421 4.2 -14.4°
